Temp_Advection
nan nan nan nan nan nan nan nan nan nan nan nan nan nan nan nan nan nan nan nan nan nan nan nan nan nan nan nan nan nan nan nan nan nan nan nan nan nan nan nan nan nan nan
nan -0 -0 -0 -0 0 0 0 0 -0 0 -0 -0 0 0 -0 -0 -0 0 0 -0 -0 -0 0 -1 -1 0 0 0 0 0 -0 -0 -0 -0 -0 -0 -0 -0 -0 -0 0 nan
nan -0 -0 -0 -1 -0 -0 -0 0 -0 -0 0 -0 0 0 0 -0 -0 -0 0 0 -0 0 0 -1 -0 0 -0 -0 0 0 0 -0 -0 -0 0 -0 0 0 0 0 0 nan
nan -0 -0 -0 -0 -0 -0 -0 0 -0 -0 -0 0 -0 -0 -0 0 -0 -0 0 0 0 0 -1 -1 -1 -0 -0 0 0 0 0 -0 -0 0 -0 -0 0 0 -0 -0 -0 nan
nan -0 -0 -0 -0 -0 -0 -0 0 0 0 -0 -0 -0 -0 -0 -0 -0 -0 0 0 -0 -0 -0 -0 -0 0 0 0 0 0 -0 0 0 -0 -0 -0 0 -0 -0 -0 -0 nan
nan -0 -0 -0 -0 -0 0 -0 -0 -0 0 0 0 0 -0 -0 -0 -0 -0 -0 -0 0 -0 0 -0 -0 -0 0 0 -0 0 0 0 -0 -0 -0 0 0 -0 -0 -0 -0 nan
nan 0 -0 0 0 -0 -0 0 0 -0 0 0 -0 0 0 0 -0 -0 -0 -0 0 0 0 0 -0 -0 -0 0 0 0 0 0 0 0 0 0 0 0 0 -0 -0 -0 nan
nan 0 -0 -0 0 0 -0 0 0 0 0 0 0 0 0 0 0 0 -0 0 0 0 0 0 1 0 1 0 0 0 0 0 0 0 0 0 0 0 0 -0 -0 -0 nan
nan 0 -0 -0 0 0 0 0 0 0 0 0 0 0 -0 -0 0 0 0 0 0 -0 -0 0 1 0 1 0 0 0 0 0 -0 -0 -0 -0 0 -0 -0 -0 -0 -0 nan
nan 0 -0 -0 -0 -0 -0 -0 -0 -0 -0 -0 -0 -0 -0 0 0 0 -0 -0 -0 0 -0 -0 0 1 0 1 0 -0 -0 -0 -0 -0 -0 -0 -0 -0 -0 -0 -0 -1 nan
nan -0 -0 -0 0 -0 -0 -0 0 0 0 -0 -0 -0 0 0 -0 0 0 0 -0 -0 0 0 -0 1 1 1 0 0 0 0 -0 -0 -0 -0 -0 -0 -0 -0 -0 -0 nan
nan -0 -0 0 0 0 0 0 0 0 -0 0 -0 -0 0 0 -0 -0 0 0 0 -0 -0 0 -0 0 1 0 0 0 0 0 -0 -0 -0 -0 -0 -0 0 0 -0 0 nan
nan -0 0 0 0 0 0 0 -0 -0 -0 -0 -0 0 0 -0 -0 -0 0 0 0 0 -0 0 -0 -0 -0 0 0 0 0 -0 -0 -0 -0 0 -0 -0 -0 -0 -0 -0 nan
nan -0 -0 0 0 -0 0 -0 0 0 0 -0 -0 0 0 -0 -0 0 0 -0 -0 0 0 -0 0 -0 -0 0 0 0 -0 0 0 -0 0 0 -0 -0 -0 -0 -0 -0 nan
nan -0 -0 0 -0 1 0 0 0 0 0 -0 0 0 -0 -0 0 0 -0 -0 0 0 -0 -0 0 0 -0 -0 -0 -0 -0 -0 -0 -0 -0 0 -0 -0 0 -0 -0 -0 nan
nan -0 0 0 1 1 0 0 0 0 0 0 0 -0 -0 -0 0 0 -0 -0 -0 0 0 -1 -0 0 -0 -0 -0 -0 -0 -0 -0 -0 -0 -0 -0 -0 -0 0 -0 -0 nan
nan 0 1 1 0 0 0 0 0 0 -0 -0 -0 0 -0 -0 -0 -0 -0 -0 -0 -0 -0 -0 -0 -0 -0 -0 -0 -0 -1 -0 -0 -0 -0 -0 -0 -0 -0 -0 -0 -0 nan
nan 0 0 0 0 0 0 1 0 0 0 0 0 -0 -0 -0 0 0 0 -0 -0 -0 0 -0 -0 -0 -0 -0 -0 -0 -0 -0 -0 -0 -0 -0 -0 -0 -0 -0 -0 -0 nan
nan 0 0 0 -0 0 1 1 1 -0 -0 0 0 -0 -0 -0 0 0 0 0 -0 -0 -0 -0 -0 -0 -0 -0 -0 -0 -0 -0 -0 -0 -0 -0 -0 -0 -0 -0 0 -0 nan
nan 0 0 0 0 0 1 0 -0 -0 -0 -0 -0 -0 -0 0 -0 -0 -0 -0 0 0 -0 0 0 -0 -0 -0 -0 -0 -0 -0 -0 -0 -0 -0 -0 -0 -0 -0 -0 -0 nan
nan 0 0 0 0 0 0 0 0 -0 -0 -0 -0 -0 0 0 0 -0 0 0 -0 -0 0 0 0 -0 -0 -0 -0 -0 -0 -0 -0 -0 -0 -0 -0 -0 -0 -0 -0 0 nan
nan -0 -0 -0 -0 0 0 0 -0 -0 -0 -0 1 0 -0 0 1 0 -0 -0 0 0 -0 -0 -0 -0 -0 -0 -0 -0 -0 -0 -0 -0 -0 -0 -0 -0 -0 -0 -0 -0 nan
nan -0 -0 -0 -0 -0 0 0 0 0 -0 -0 0 1 0 0 -0 -0 0 0 0 -0 0 0 -0 -0 -0 -0 -0 -0 -0 -0 -0 -0 -0 -0 -0 -0 -0 -0 -0 -0 nan
nan -0 -0 -0 0 0 0 -0 -0 0 0 0 0 0 -0 -0 0 0 0 -0 -0 0 0 0 0 -0 0 0 -0 -0 -0 -0 -0 -0 -0 -0 -0 -0 0 -0 -0 -0 nan
nan -0 -0 -0 -0 0 0 0 0 0 -0 0 0 0 0 -0 -0 0 0 0 0 0 0 0 0 0 0 0 -0 -0 -0 -0 -0 -0 -0 -0 -0 -0 -0 -0 -0 -0 nan
nan nan nan nan nan nan nan nan nan nan nan nan nan nan nan nan nan nan nan nan nan nan nan nan nan nan nan nan nan nan nan nan nan nan nan nan nan nan nan nan nan nan nan
Wind_Speed
34 30 21 19 22 22 24 25 24 24 22 23 23 22 22 20 21 23 22 23 27 36 45 45 45 36 36 30 28 27 25 23 21 16 9 12 8 10 10 10 10 12 14
33 19 17 20 23 23 21 22 20 20 19 20 20 20 20 20 21 21 23 23 21 24 28 36 47 40 40 32 30 29 25 24 22 19 13 11 10 10 8 10 7 11 14
21 17 20 22 23 20 19 19 18 17 19 19 20 21 22 22 23 24 20 22 20 20 22 27 40 46 36 33 31 29 25 24 23 19 18 10 12 12 9 12 9 11 12
18 19 22 23 21 19 19 17 17 18 18 19 19 18 18 20 21 21 23 20 18 18 22 25 38 45 36 34 33 31 28 25 22 19 19 11 13 13 10 10 7 8 9
18 22 24 19 19 19 20 16 16 15 17 17 15 13 15 15 16 18 18 18 17 15 21 20 30 34 37 34 34 33 29 26 21 18 20 13 15 14 12 8 10 8 9
18 22 22 20 19 18 17 15 16 16 16 17 13 13 13 12 13 16 17 18 16 15 24 22 25 31 30 35 32 31 28 27 24 18 21 14 14 12 13 9 10 10 9
22 24 22 21 20 20 16 13 15 15 14 15 13 13 11 9 4 13 14 15 15 16 22 23 31 30 35 35 33 28 24 22 21 19 21 13 14 13 13 11 11 8 8
24 23 22 22 20 21 16 13 14 14 15 12 13 14 13 9 5 10 12 12 13 14 18 26 32 28 40 40 34 29 25 20 19 19 19 14 16 13 12 12 13 9 7
23 24 22 22 20 21 18 11 15 17 14 10 10 11 12 11 7 9 10 14 13 15 16 20 26 29 26 36 32 29 25 21 19 21 19 15 15 13 13 13 14 11 12
22 23 22 21 21 21 18 13 17 15 17 13 12 10 10 11 9 8 11 14 15 15 17 15 21 27 30 29 27 28 26 21 21 23 18 15 12 10 9 14 14 15 19
19 23 25 20 22 22 17 17 17 15 13 11 12 12 11 11 9 9 9 11 16 17 17 21 21 24 32 30 24 21 23 21 20 23 16 12 11 12 12 10 11 19 19
18 23 24 21 21 23 22 17 16 15 14 16 16 13 14 14 11 9 10 12 13 17 18 18 26 22 33 34 28 18 20 19 21 20 14 14 11 14 12 5 11 13 16
17 22 23 23 23 25 25 25 20 15 15 14 15 15 15 14 17 13 12 17 14 12 16 18 24 23 25 33 29 23 20 19 20 16 14 14 14 8 6 5 9 12 13
15 22 20 21 22 21 24 28 26 19 12 14 14 13 17 15 13 13 14 14 11 17 21 21 29 25 29 28 25 23 20 18 17 17 18 13 14 12 7 10 12 9 15
15 18 17 18 19 20 22 21 23 25 21 16 16 15 16 18 15 16 16 18 23 23 23 28 29 28 26 23 20 19 17 17 13 20 4 9 11 12 8 12 13 14 20
17 16 18 15 17 17 20 21 19 18 17 20 19 18 18 17 18 19 19 24 21 21 29 30 26 24 21 19 18 18 17 17 14 5 5 4 7 10 15 12 11 15 22
22 18 15 18 16 19 20 21 21 19 17 19 17 21 22 19 18 14 20 21 20 21 23 23 20 19 17 16 18 19 20 14 9 6 7 6 8 13 16 11 11 12 17
25 21 19 17 18 17 18 21 21 18 22 21 18 18 21 19 19 21 21 21 20 18 19 18 14 14 15 21 19 18 17 14 10 9 8 7 15 18 16 17 14 15 15
30 24 20 17 19 20 17 19 22 22 19 20 21 18 20 19 18 17 15 15 16 16 14 11 11 15 22 20 16 15 13 13 12 8 7 10 13 12 15 19 17 18 16
28 30 25 22 18 16 19 17 16 17 19 19 20 20 16 15 17 15 15 15 14 14 15 14 15 16 18 15 12 10 10 10 8 10 7 10 7 10 14 16 17 20 22
24 26 27 28 24 20 17 18 18 18 17 17 16 16 14 14 17 16 15 14 14 14 12 12 12 12 12 11 13 10 9 10 11 11 13 9 5 9 11 12 15 20 20
22 22 24 26 27 27 21 18 14 15 18 18 19 18 16 19 18 16 13 11 10 11 11 10 8 7 7 8 10 13 12 11 16 13 8 8 9 13 12 12 16 19 23
20 20 21 22 24 25 26 24 19 15 13 14 16 15 15 13 13 11 9 9 7 6 4 4 2 2 3 6 5 6 9 12 13 11 10 9 10 15 15 13 14 16 20
17 18 19 19 19 20 22 24 23 22 17 14 11 10 10 9 7 8 8 7 3 3 4 6 5 1 1 4 5 10 12 10 9 11 12 12 12 13 10 11 15 18 21
18 16 16 17 17 17 17 18 19 21 21 19 15 13 11 9 9 8 6 4 4 5 6 7 6 3 2 5 7 10 11 13 9 8 5 12 14 13 12 13 15 18 20
22 20 17 15 15 15 14 14 15 15 16 17 17 16 14 12 10 8 8 7 4 4 6 6 6 7 5 5 6 10 11 14 15 13 12 9 12 14 17 15 17 17 18
Wind_Direction
321 323 327 329 322 318 313 309 302 299 295 288 284 279 276 275 263 254 250 250 244 242 239 236 236 228 217 225 221 219 223 227 231 217 227 227 213 191 199 199 189 209 221
328 326 319 322 320 313 310 308 307 304 300 297 290 279 278 268 262 262 249 249 248 240 236 228 224 225 214 214 217 216 216 218 221 214 220 226 207 195 201 205 211 223 221
329 323 318 318 318 314 317 318 316 311 306 300 290 283 274 266 265 255 248 251 249 242 234 217 216 216 210 205 209 208 204 209 217 215 214 212 189 195 208 217 247 237 223
339 334 329 327 325 322 317 318 318 316 310 309 302 294 285 275 261 246 246 241 248 242 207 216 209 212 203 198 203 200 199 204 212 214 208 200 183 197 203 209 237 214 239
347 343 339 338 333 324 325 316 323 323 322 323 314 307 296 277 260 243 234 226 234 222 197 205 200 196 193 194 200 196 197 203 206 211 204 198 189 201 211 224 205 214 237
352 347 346 345 339 337 333 337 339 334 332 335 337 332 323 295 266 231 223 215 215 209 198 185 190 206 196 193 197 197 200 204 203 204 200 188 181 205 207 216 205 212 225
352 352 351 353 350 343 337 341 350 348 352 349 358 359 351 339 250 194 199 206 206 202 194 187 179 188 185 186 189 196 192 193 204 207 194 173 186 193 198 206 203 219 249
358 351 355 353 349 353 350 352 356 355 353 0 8 14 21 40 109 159 173 180 183 191 188 189 181 165 170 178 183 185 187 195 197 196 190 176 190 198 209 210 207 220 233
1 360 359 360 356 353 356 357 6 2 10 0 9 26 35 50 102 136 158 170 172 173 174 185 188 182 165 182 184 182 183 187 192 188 196 186 194 214 219 215 209 216 222
2 2 5 6 4 2 7 17 11 15 24 36 36 45 52 65 76 119 148 156 148 163 160 170 179 185 183 164 179 179 182 185 188 188 192 187 201 215 215 195 206 222 188
5 11 14 18 16 18 24 22 26 31 36 42 42 45 69 68 90 110 142 148 156 144 160 163 167 179 185 185 172 179 188 184 187 190 189 189 219 196 203 210 194 199 221
15 21 19 28 31 27 34 34 37 43 48 48 55 57 67 58 64 118 128 139 146 154 154 164 167 164 177 180 177 176 182 186 189 189 190 190 223 185 194 231 189 185 196
23 30 25 43 51 46 44 42 43 48 49 58 54 81 64 72 77 94 125 141 142 148 147 141 159 153 164 169 174 181 187 185 181 191 201 204 208 195 209 219 187 191 191
30 34 35 35 48 52 45 41 44 46 55 59 62 76 71 70 80 95 108 126 129 137 136 136 143 139 150 157 165 177 181 174 180 205 193 175 193 210 228 182 193 190 174
32 32 41 43 44 36 31 37 47 51 58 68 73 78 68 76 77 99 108 123 130 130 128 137 140 140 138 146 159 166 172 180 204 185 207 158 194 205 184 172 193 175 178
35 33 32 43 47 41 37 38 43 49 49 64 62 69 78 89 78 102 101 117 115 120 124 128 133 141 147 150 159 168 173 176 180 198 179 208 184 186 173 169 187 174 182
34 31 29 29 34 46 36 34 40 47 51 65 71 60 69 79 89 100 113 120 121 127 133 134 136 145 152 158 158 163 165 172 189 209 225 204 192 171 166 188 186 176 171
32 34 35 32 29 31 47 50 51 51 62 66 69 76 82 83 85 91 109 121 132 137 134 143 146 158 164 155 152 162 173 189 211 225 214 201 177 165 175 185 174 180 189
30 31 33 35 43 42 50 65 59 63 64 65 64 72 77 83 83 91 97 100 112 122 125 144 149 151 156 157 161 173 189 208 209 212 213 178 178 178 180 181 186 197 194
29 31 34 36 38 49 49 58 62 56 62 77 77 78 81 79 88 94 99 104 111 115 117 112 121 141 161 170 182 190 174 190 203 191 186 182 189 180 184 195 193 197 199
31 33 36 41 39 44 54 52 55 55 57 69 78 80 84 79 76 85 95 91 100 111 112 109 116 131 150 164 167 189 206 195 194 196 181 198 195 189 186 189 198 190 182
29 32 34 37 40 43 47 54 54 57 61 65 80 79 79 92 89 94 95 83 88 102 116 131 153 183 200 200 185 181 186 196 187 189 209 198 187 185 190 187 191 199 194
24 29 33 36 37 41 44 50 53 54 62 69 71 87 98 92 94 102 99 100 103 117 117 116 130 148 136 159 175 163 172 175 185 192 205 201 173 178 190 196 199 202 195
26 25 26 32 36 37 40 46 47 49 53 58 67 74 79 78 72 82 97 121 104 46 31 57 116 234 60 136 177 170 181 165 165 163 158 164 172 171 176 176 183 182 188
17 25 26 25 27 33 35 37 43 45 46 53 64 70 73 78 84 74 73 70 44 33 38 32 24 26 69 120 131 148 164 162 168 171 177 171 186 190 181 168 169 173 182
22 19 21 22 22 22 26 29 31 38 43 44 42 46 61 71 77 89 89 76 60 37 355 352 25 65 86 137 148 161 168 186 191 192 182 163 155 160 171 177 176 176 186
Height
1479 1471 1466 1462 1457 1453 1449 1444 1441 1437 1434 1432 1430 1428 1427 1426 1427 1427 1428 1429 1430 1433 1440 1447 1453 1460 1466 1473 1479 1484 1488 1492 1496 1499 1500 1502 1503 1505 1507 1509 1511 1513 1515
1472 1466 1461 1457 1452 1447 1442 1438 1434 1430 1428 1426 1424 1422 1421 1420 1420 1420 1421 1423 1424 1426 1429 1434 1443 1451 1458 1467 1473 1479 1484 1489 1492 1496 1499 1500 1502 1505 1506 1508 1510 1511 1513
1467 1462 1458 1452 1447 1442 1437 1432 1429 1425 1423 1420 1417 1415 1414 1413 1413 1413 1415 1417 1418 1420 1422 1426 1433 1444 1451 1460 1468 1474 1480 1486 1490 1494 1497 1499 1501 1504 1506 1507 1508 1509 1510
1465 1460 1455 1449 1443 1439 1434 1429 1426 1422 1418 1415 1412 1408 1406 1405 1405 1406 1408 1411 1412 1414 1417 1421 1428 1437 1445 1455 1463 1470 1476 1482 1487 1491 1495 1498 1500 1503 1505 1506 1507 1508 1509
1463 1458 1451 1445 1441 1436 1432 1427 1422 1418 1415 1410 1407 1403 1400 1399 1398 1399 1402 1405 1409 1411 1414 1418 1425 1434 1442 1452 1459 1467 1473 1479 1484 1488 1492 1496 1499 1502 1504 1506 1507 1508 1509
1461 1455 1449 1443 1439 1434 1429 1425 1421 1416 1412 1408 1404 1400 1397 1394 1392 1394 1397 1402 1406 1408 1412 1417 1423 1431 1439 1448 1458 1466 1472 1476 1481 1485 1490 1494 1497 1501 1503 1505 1506 1507 1509
1461 1455 1448 1443 1438 1432 1427 1423 1420 1416 1412 1407 1403 1400 1395 1391 1388 1391 1395 1400 1405 1408 1411 1416 1424 1430 1437 1447 1457 1465 1471 1476 1481 1485 1489 1492 1496 1500 1502 1504 1506 1507 1507
1461 1454 1449 1443 1437 1432 1427 1423 1420 1416 1411 1408 1404 1401 1397 1393 1392 1393 1397 1401 1405 1408 1411 1416 1423 1429 1437 1445 1455 1463 1470 1474 1478 1483 1488 1492 1496 1498 1501 1503 1504 1506 1506
1460 1454 1448 1443 1437 1432 1427 1423 1421 1417 1412 1408 1406 1403 1401 1398 1397 1398 1400 1403 1407 1409 1413 1417 1423 1431 1437 1446 1454 1462 1468 1473 1478 1483 1488 1492 1495 1498 1499 1501 1503 1505 1506
1461 1455 1449 1444 1438 1432 1428 1424 1422 1419 1415 1411 1409 1406 1404 1402 1402 1402 1404 1406 1409 1411 1415 1420 1425 1432 1440 1447 1454 1461 1467 1473 1478 1483 1488 1492 1495 1496 1497 1499 1503 1504 1505
1463 1458 1452 1446 1440 1435 1431 1427 1424 1421 1418 1415 1412 1410 1408 1407 1406 1407 1408 1410 1412 1414 1418 1422 1427 1432 1441 1448 1457 1463 1469 1474 1478 1483 1488 1491 1493 1495 1496 1498 1500 1503 1506
1465 1460 1455 1449 1444 1439 1435 1431 1427 1425 1422 1419 1417 1415 1413 1411 1410 1410 1412 1414 1416 1419 1421 1425 1430 1435 1442 1450 1459 1466 1471 1475 1479 1484 1488 1491 1492 1494 1496 1497 1500 1503 1505
1468 1464 1459 1453 1449 1445 1440 1436 1431 1428 1425 1423 1421 1419 1418 1417 1415 1415 1415 1418 1421 1423 1426 1429 1433 1439 1445 1454 1461 1467 1471 1476 1480 1485 1487 1490 1491 1493 1496 1497 1500 1503 1506
1471 1468 1463 1458 1454 1450 1446 1441 1436 1432 1429 1428 1426 1425 1423 1422 1421 1420 1421 1423 1425 1427 1430 1434 1438 1443 1450 1456 1462 1468 1473 1477 1481 1484 1487 1489 1491 1493 1495 1497 1500 1503 1507
1474 1471 1467 1463 1459 1456 1451 1447 1443 1439 1436 1433 1432 1430 1430 1428 1427 1426 1426 1427 1429 1432 1435 1439 1444 1449 1455 1460 1465 1470 1474 1478 1482 1484 1486 1489 1491 1492 1495 1497 1501 1503 1507
1478 1474 1471 1467 1464 1461 1457 1453 1449 1446 1444 1440 1438 1436 1435 1434 1434 1434 1434 1436 1439 1441 1443 1446 1451 1455 1460 1464 1468 1472 1476 1480 1483 1485 1487 1489 1490 1492 1494 1498 1500 1505 1509
1482 1478 1475 1471 1468 1465 1461 1458 1454 1452 1449 1447 1445 1443 1442 1440 1440 1440 1441 1443 1446 1449 1451 1454 1457 1460 1464 1467 1470 1473 1478 1481 1484 1485 1487 1488 1490 1491 1496 1498 1501 1504 1509
1487 1483 1479 1475 1472 1468 1466 1463 1460 1457 1455 1453 1451 1450 1449 1448 1447 1447 1448 1450 1451 1454 1457 1460 1461 1464 1466 1469 1473 1476 1479 1482 1484 1486 1487 1488 1491 1494 1497 1499 1502 1506 1510
1493 1487 1482 1479 1476 1473 1470 1468 1466 1463 1461 1459 1458 1457 1456 1455 1455 1455 1456 1457 1457 1459 1460 1462 1463 1465 1468 1472 1476 1479 1481 1483 1484 1486 1488 1488 1491 1493 1496 1501 1504 1507 1510
1500 1494 1488 1484 1480 1478 1476 1473 1471 1469 1467 1466 1464 1463 1463 1462 1461 1461 1462 1462 1463 1464 1465 1465 1467 1469 1473 1476 1478 1479 1481 1483 1484 1486 1488 1489 1491 1495 1498 1500 1503 1506 1510
1506 1502 1497 1491 1485 1482 1480 1479 1476 1474 1472 1471 1470 1469 1469 1469 1468 1468 1468 1468 1468 1469 1469 1471 1472 1473 1475 1476 1478 1480 1482 1483 1485 1486 1488 1489 1491 1493 1496 1500 1503 1507 1510
1512 1508 1503 1498 1494 1490 1485 1483 1482 1480 1479 1477 1476 1475 1475 1474 1475 1475 1474 1474 1474 1474 1475 1475 1475 1476 1477 1477 1479 1480 1482 1483 1485 1487 1488 1490 1492 1493 1497 1500 1503 1506 1510
1516 1512 1509 1505 1501 1498 1494 1489 1486 1485 1484 1483 1482 1481 1481 1481 1480 1479 1479 1479 1478 1478 1477 1477 1477 1476 1477 1478 1479 1480 1482 1483 1485 1487 1488 1489 1491 1494 1496 1500 1503 1506 1510
1519 1516 1512 1509 1507 1504 1501 1497 1494 1491 1487 1486 1485 1485 1485 1485 1484 1484 1483 1482 1481 1480 1479 1479 1479 1479 1477 1480 1479 1481 1482 1483 1484 1486 1488 1490 1492 1494 1497 1499 1503 1507 1512
1522 1519 1516 1513 1510 1508 1505 1503 1500 1498 1495 1491 1490 1489 1489 1488 1488 1488 1487 1486 1484 1483 1482 1481 1480 1479 1479 1480 1480 1481 1483 1485 1487 1487 1489 1490 1493 1495 1497 1501 1505 1509 1513
1525 1522 1519 1516 1514 1511 1509 1506 1504 1503 1501 1499 1496 1493 1492 1491 1490 1490 1490 1489 1488 1486 1485 1483 1481 1481 1481 1481 1481 1483 1485 1486 1487 1488 1489 1491 1493 1495 1499 1502 1506 1510 1513